CW8478 Weather Reports


time (UTC)temp
C
wind
direction
speed
KPH
gust
KPH
rain 1hr
cm
rain 24hr
cm
rain mn
cm
humidity
%
barometer
mb
20260503214547 14 267 6.4 22.5 0.00 0.00 0.00 33 1010.9
20260503213043 14 235 6.4 14.5 0.00 0.00 0.00 33 1010.7
20260503211543 14 238 4.8 16.1 0.00 0.00 0.00 32 1010.8
20260503210042 14 211 9.7 19.3 0.00 0.00 0.00 32 1010.9
20260503204540 15 222 9.7 22.5 0.00 0.00 0.00 30 1010.8
20260503203042 15 238 11.3 30.6 0.00 0.00 0.00 31 1011.0
20260503201533 14 206 17.7 33.8 0.00 0.00 0.00 31 1011.1
20260503200031 14 251 11.3 24.1 0.00 0.00 0.00 31 1011.3
20260503194533 14 245 14.5 25.7 0.00 0.00 0.00 33 1011.3
20260503193027 13 277 1.6 20.9 0.00 0.00 0.00 32 1011.7
20260503191534 13 242 11.3 24.1 0.00 0.00 0.00 30 1012.0
20260503190024 13 217 4.8 24.1 0.00 0.00 0.00 34 1012.0
20260503184522 13 229 12.9 25.7 0.00 0.00 0.00 32 1012.1
20260503183020 13 244 3.2 30.6 0.00 0.00 0.00 33 1012.1
20260503181519 13 228 4.8 16.1 0.00 0.00 0.00 35 1012.4
20260503180024 13 236 4.8 17.7 0.00 0.00 0.00 37 1012.4
20260503174513 13 275 4.8 29.0 0.00 0.00 0.00 32 1012.6
20260503173012 12 243 3.2 22.5 0.00 0.00 0.00 34 1012.7
20260503171510 13 267 3.2 24.1 0.00 0.00 0.00 34 1012.8
20260503160115 11 268 6.4 22.5 0.00 0.00 0.00 38 1013.6
20260503081544 3 219 3.2 9.7 0.00 0.00 0.00 62 1013.3
20260503071541 3 316 3.2 8.0 0.00 0.00 0.00 62 1013.1
20260503054534 4 259 3.2 9.7 0.00 0.08 0.00 59 1012.9
20260503053024 4 229 3.2 8.0 0.00 0.08 0.00 58 1013.0
20260503051516 5 234 0.0 6.4 0.00 0.08 0.00 55 1013.1
20260503050015 5 255 0.0 9.7 0.00 0.08 0.00 56 1013.2
20260503044515 5 259 1.6 8.0 0.00 0.25 0.00 55 1013.1
20260503043030 5 255 1.6 6.4 0.00 0.25 0.00 55 1013.1
20260503041510 5 285 4.8 11.3 0.00 0.25 0.00 54 1013.1
20260503040006 5 250 1.6 8.0 0.00 0.33 0.25 55 1013.1
20260503034505 6 257 1.6 8.0 0.00 0.33 0.25 55 1013.2
20260503033015 6 258 3.2 11.3 0.00 0.33 0.25 55 1013.3
20260503031504 6 250 1.6 11.3 0.00 0.33 0.25 54 1013.4
20260503030003 6 248 3.2 9.7 0.00 0.43 0.25 56 1013.4
20260503024509 6 238 3.2 8.0 0.00 0.43 0.25 58 1013.4
20260503023002 6 254 4.8 8.0 0.00 0.43 0.25 58 1013.4
20260503021505 6 254 3.2 8.0 0.00 0.43 0.25 59 1013.4
20260503020002 6 266 4.8 12.9 0.00 0.43 0.25 59 1013.2
20260503014501 6 250 1.6 8.0 0.00 0.43 0.25 63 1013.1
20260503013100 6 276 1.6 4.8 0.00 0.43 0.25 65 1013.2
20260503011605 6 238 4.8 16.1 0.00 0.43 0.25 63 1013.1
20260503010105 6 224 0.0 6.4 0.00 0.43 0.25 66 1012.9
20260503004609 6 217 1.6 4.8 0.00 0.53 0.25 66 1012.8
20260503004501 6 210 0.0 4.8 0.00 0.53 0.25 67 1012.8
20260503003111 6 217 0.0 6.4 0.00 0.53 0.25 66 1012.7
20260503001621 6 221 0.0 6.4 0.00 0.53 0.25 65 1012.6
20260503000057 6 215 1.6 11.3 0.00 0.53 0.25 64 1012.5
20260502234557 6 234 1.6 4.8 0.00 0.56 0.25 66 1012.4
20260502233056 6 228 0.0 3.2 0.00 0.56 0.25 67 1012.4
20260502231555 6 238 1.6 8.0 0.00 0.56 0.25 68 1012.3
20260502230056 6 236 0.0 4.8 0.00 0.56 0.25 69 1012.3
20260502224555 7 242 3.2 12.9 0.00 0.56 0.25 66 1012.4
20260502223054 7 252 0.0 4.8 0.00 0.56 0.25 62 1012.2
20260502221554 7 219 1.6 6.4 0.00 0.56 0.25 60 1012.1
20260502220053 8 197 0.0 3.2 0.00 0.56 0.25 62 1012.2